Location: Beetenbrück
(52.8113°N, 9.5946°E)
Time: 22:41:14
(UTC+00:00)

Cosmos 2233 Rocket - Pass Details

Date: 14 April 2026
Orbit: 951 x 991 km, 82.9° (Epoch: 12 May)

Event Time Altitude Azimuth Distance (km) Brightness Sun altitude
Exits shadow 23:38:04 73° 176° (S) 1,034 3.8 -27.4°
Maximum altitude 23:38:45 86° 99° (E) 996 3.9 -27.4°
Drops below altitude 10° 23:45:04 10° 11° (N) 2,744 7.3 -27.3°
Sets 23:47:35 0° 11° (NNE) 3,690 8.3 -27.3°
